一网星座-0164星 (ONEWEB-0164 )

导读 | 星芒AI

ONEWEB-0164 是 OneWeb 卫星星座计划中的一颗低轨通信卫星,旨在为全球提供高速互联网服务。该卫星采用模块化设计,搭载先进通信载荷,支持宽带数据传输。作为 OneWeb 扩展其卫星网络的一部分,ONEWEB-0164 于近期成功发射,加入其在近地轨道的卫星群,增强覆盖范围与网络性能。该星座致力于为偏远地区、航空和海上用户提供稳定连接,推动全球数字包容性发展。

基本信息
目录编号:
48063
目录名称:
ONEWEB-0164
国际标识:
2021-025X
轨道中心:
EARTH
卫星名称:
一网星座-0164星
卫星全名:
一网星座-0164星 (ONEWEB-0164 )
卫星状态:
在轨 (已飞行1726 天)
发射日期:
2021-03-25 UTC
国别 :
英国 (GB)
星等 :
--
轨道信息
数据来源 国际轨道数据 AOE轨道数据
星历时间 2025-12-15T07:23:51+0800
19小时前
查看轨道信息
2025-12-13T04:00:00+0800
2天前
查看轨道信息
半长轴 7587.904km 7587.885km
偏心率 0.0001846 0.0001678
轨道倾角 87.898° 87.899°
近地点辐角 90.026° 89.093°
升交点赤经 356.823° 357.248°
平近点角 270.108° 230.453°
近地点 1208.368km 1208.476km
远地点 1211.17km 1211.024km
周期 109.633分钟 109.633分钟
每日圈数 13.134697 13.134746
详细信息
平衡模式:
三轴稳定
覆盖范围:
全球
运营商:
一网卫星公司
运营商所在国:
英国
制造商(研发单位):
一网卫星公司
制造商所在国:
英国
使用方式:
暂无
卫星简介
OneWeb卫星网络由648颗重约125公斤的微型卫星组成,运行在1200公里的轨道上。 每颗卫星都能够提供至少每秒8千兆位的吞吐量,以使用其高吞吐量的Ku频段有效载荷为家庭和移动平台提供互联网接入。该卫星仍在工作。
2D轨道图
3D轨道图
轨道高度分析图
轨道倾角分析图
轨道综合分析图
查看轨道综合分析图